Hourly Weather Alitub

Today, 16 May, Sunday

Time Temperature Precipitation Wind Pressure Humidity
00:00 +19°C° 0 mm 2 mps 758 mmHg 72%
01:00 +19°C° 0 mm 2 mps 758 mmHg 73%
02:00 +19°C° 0 mm 2 mps 758 mmHg 75%
03:00 +18°C° 0 mm 3 mps 758 mmHg 76%
04:00 +19°C° 0 mm 2 mps 758 mmHg 78%
05:00 +19°C° 0 mm 2 mps 758 mmHg 81%
06:00 +19°C° 0 mm 2 mps 758 mmHg 84%
07:00 +21°C° 0 mm 3 mps 758 mmHg 79%
08:00 +22°C° 0 mm 3 mps 757 mmHg 74%
09:00 +25°C° 0 mm 4 mps 757 mmHg 70%
10:00 +26°C° 0 mm 5 mps 757 mmHg 63%
11:00 +26°C° 0 mm 5 mps 757 mmHg 55%
12:00 +27°C° 0 mm 6 mps 756 mmHg 48%
13:00 +28°C° 0 mm 6 mps 756 mmHg 49%
14:00 +28°C° 0 mm 6 mps 756 mmHg 50%
15:00 +28°C° 0 mm 6 mps 756 mmHg 51%
16:00 +28°C° 0 mm 5 mps 755 mmHg 55%
17:00 +27°C° 0 mm 4 mps 755 mmHg 58%
18:00 +27°C° 0 mm 3 mps 754 mmHg 62%
19:00 +25°C° 0 mm 4 mps 754 mmHg 61%
20:00 +23°C° 0 mm 5 mps 754 mmHg 60%
21:00 +22°C° 0 mm 5 mps 754 mmHg 60%
22:00 +21°C° 0 mm 5 mps 754 mmHg 57%
23:00 +20°C° 0 mm 5 mps 754 mmHg 55%

Tomorrow, 17 May, Monday

Time Temperature Precipitation Wind Pressure Humidity
00:00 +20°C° 0 mm 5 mps 753 mmHg 52%
01:00 +19°C° 0 mm 5 mps 753 mmHg 54%
02:00 +17°C° 0 mm 5 mps 753 mmHg 55%
03:00 +16°C° 0 mm 5 mps 753 mmHg 57%
04:00 +17°C° 0 mm 4 mps 753 mmHg 60%
05:00 +15°C° 0 mm 4 mps 754 mmHg 64%
06:00 +16°C° 0 mm 3 mps 754 mmHg 67%
07:00 +18°C° 0 mm 4 mps 754 mmHg 64%
08:00 +20°C° 0 mm 4 mps 754 mmHg 61%
09:00 +21°C° 0 mm 4 mps 755 mmHg 58%
10:00 +23°C° 0 mm 4 mps 755 mmHg 56%
11:00 +25°C° 0 mm 3 mps 755 mmHg 55%
12:00 +27°C° 0 mm 3 mps 755 mmHg 53%
13:00 +27°C° 0 mm 2 mps 755 mmHg 53%
14:00 +28°C° 0 mm 2 mps 755 mmHg 53%
15:00 +28°C° 0 mm 2 mps 755 mmHg 54%
16:00 +27°C° 0 mm 2 mps 755 mmHg 60%
17:00 +26°C° 0 mm 2 mps 755 mmHg 66%
18:00 +25°C° 0 mm 2 mps 755 mmHg 72%
19:00 +24°C° 0 mm 3 mps 755 mmHg 75%
20:00 +21°C° 0 mm 3 mps 756 mmHg 78%
21:00 +20°C° 0 mm 4 mps 756 mmHg 82%
22:00 +19°C° 0.6 mm 4 mps 756 mmHg 84%
23:00 +19°C° 0.6 mm 4 mps 756 mmHg 86%

Day after tomorrow, 18 May, Tuesday

Time Temperature Precipitation Wind Pressure Humidity
00:00 +18°C° 0.6 mm 4 mps 757 mmHg 89%
01:00 +18°C° 0.2 mm 4 mps 757 mmHg 90%
02:00 +17°C° 0.2 mm 4 mps 756 mmHg 91%
03:00 +17°C° 0.2 mm 3 mps 756 mmHg 92%
04:00 +17°C° 0.4 mm 3 mps 756 mmHg 93%
05:00 +17°C° 0.4 mm 2 mps 757 mmHg 94%
06:00 +17°C° 0.4 mm 2 mps 757 mmHg 95%
07:00 +17°C° 0.1 mm 2 mps 757 mmHg 93%
08:00 +17°C° 0.1 mm 2 mps 757 mmHg 91%
09:00 +18°C° 0.1 mm 3 mps 757 mmHg 89%
10:00 +19°C° 0 mm 3 mps 757 mmHg 83%
11:00 +20°C° 0 mm 3 mps 757 mmHg 77%
12:00 +21°C° 0 mm 3 mps 757 mmHg 70%
13:00 +22°C° 0.1 mm 4 mps 757 mmHg 68%
14:00 +22°C° 0.1 mm 4 mps 757 mmHg 66%
15:00 +22°C° 0.1 mm 4 mps 757 mmHg 63%
16:00 +22°C° 0 mm 3 mps 757 mmHg 65%
17:00 +22°C° 0 mm 3 mps 757 mmHg 67%
18:00 +22°C° 0 mm 3 mps 757 mmHg 69%
19:00 +20°C° 0 mm 3 mps 757 mmHg 74%
20:00 +19°C° 0 mm 2 mps 757 mmHg 79%
21:00 +17°C° 0 mm 2 mps 757 mmHg 84%
22:00 +17°C° 0 mm 2 mps 757 mmHg 86%
23:00 +16°C° 0 mm 2 mps 757 mmHg 88%

19 May, Wednesday

Time Temperature Precipitation Wind Pressure Humidity
00:00 +15°C° 0 mm 2 mps 757 mmHg 89%
01:00 +15°C° 0 mm 2 mps 757 mmHg 89%
02:00 +16°C° 0 mm 2 mps 757 mmHg 89%
03:00 +16°C° 0 mm 3 mps 757 mmHg 89%
04:00 +16°C° 0.3 mm 3 mps 757 mmHg 90%
05:00 +15°C° 0.3 mm 4 mps 757 mmHg 92%
06:00 +15°C° 0.3 mm 5 mps 757 mmHg 93%
07:00 +16°C° 0.1 mm 6 mps 758 mmHg 86%
08:00 +17°C° 0.1 mm 7 mps 758 mmHg 79%
09:00 +18°C° 0.1 mm 7 mps 758 mmHg 72%
10:00 +18°C° 0.1 mm 7 mps 759 mmHg 70%
11:00 +18°C° 0.1 mm 8 mps 759 mmHg 67%
12:00 +18°C° 0.1 mm 8 mps 760 mmHg 64%
13:00 +18°C° 0.1 mm 8 mps 760 mmHg 62%
14:00 +18°C° 0.1 mm 8 mps 760 mmHg 60%
15:00 +20°C° 0.1 mm 8 mps 761 mmHg 58%
16:00 +20°C° 0 mm 7 mps 761 mmHg 61%
17:00 +19°C° 0 mm 6 mps 761 mmHg 63%
18:00 +19°C° 0 mm 5 mps 761 mmHg 66%
19:00 +16°C° 0 mm 5 mps 761 mmHg 70%
20:00 +15°C° 0 mm 4 mps 761 mmHg 75%
21:00 +14°C° 0 mm 3 mps 762 mmHg 79%
22:00 +13°C° 0 mm 3 mps 762 mmHg 78%
23:00 +13°C° 0 mm 3 mps 762 mmHg 77%

20 May, Thursday

Time Temperature Precipitation Wind Pressure Humidity
00:00 +12°C° 0 mm 3 mps 762 mmHg 76%
01:00 +13°C° 0 mm 2 mps 762 mmHg 77%
02:00 +12°C° 0 mm 2 mps 762 mmHg 79%
03:00 +12°C° 0 mm 2 mps 762 mmHg 80%
04:00 +12°C° 0 mm 2 mps 762 mmHg 80%
05:00 +13°C° 0 mm 2 mps 762 mmHg 80%
06:00 +13°C° 0 mm 2 mps 762 mmHg 81%
07:00 +15°C° 0 mm 2 mps 762 mmHg 74%
08:00 +17°C° 0 mm 3 mps 762 mmHg 67%
09:00 +19°C° 0 mm 3 mps 762 mmHg 60%
10:00 +20°C° 0 mm 4 mps 762 mmHg 57%
11:00 +22°C° 0 mm 4 mps 761 mmHg 53%
12:00 +23°C° 0 mm 5 mps 761 mmHg 50%
13:00 +23°C° 0 mm 5 mps 760 mmHg 51%
14:00 +24°C° 0 mm 6 mps 760 mmHg 52%
15:00 +24°C° 0 mm 6 mps 760 mmHg 52%
16:00 +24°C° 0 mm 6 mps 759 mmHg 56%
17:00 +23°C° 0 mm 6 mps 759 mmHg 60%
18:00 +23°C° 0 mm 6 mps 758 mmHg 64%
19:00 +22°C° 0 mm 5 mps 758 mmHg 67%
20:00 +21°C° 0 mm 5 mps 758 mmHg 70%
21:00 +20°C° 0 mm 5 mps 757 mmHg 73%
22:00 +20°C° 0 mm 5 mps 757 mmHg 70%
23:00 +19°C° 0 mm 6 mps 757 mmHg 67%

21 May, Friday

Time Temperature Precipitation Wind Pressure Humidity
00:00 +19°C° 0 mm 6 mps 756 mmHg 64%
01:00 +19°C° 0 mm 6 mps 756 mmHg 66%
02:00 +17°C° 0 mm 5 mps 756 mmHg 68%
03:00 +17°C° 0 mm 5 mps 755 mmHg 70%
04:00 +16°C° 0.1 mm 5 mps 755 mmHg 73%
05:00 +16°C° 0.1 mm 5 mps 755 mmHg 75%
06:00 +16°C° 0.1 mm 5 mps 755 mmHg 77%
07:00 +19°C° 0.1 mm 5 mps 755 mmHg 74%
08:00 +20°C° 0.1 mm 5 mps 755 mmHg 70%
09:00 +22°C° 0.1 mm 5 mps 755 mmHg 66%
10:00 +25°C° 0 mm 5 mps 756 mmHg 64%
11:00 +26°C° 0 mm 5 mps 756 mmHg 62%
12:00 +28°C° 0 mm 5 mps 756 mmHg 60%
13:00 +27°C° 0 mm 6 mps 757 mmHg 60%
14:00 +26°C° 0 mm 6 mps 757 mmHg 60%
15:00 +26°C° 0 mm 7 mps 758 mmHg 60%
16:00 +23°C° 0 mm 6 mps 758 mmHg 60%
17:00 +22°C° 0 mm 5 mps 759 mmHg 61%
18:00 +21°C° 0 mm 5 mps 759 mmHg 61%
19:00 +19°C° 0 mm 4 mps 759 mmHg 65%
20:00 +18°C° 0 mm 3 mps 760 mmHg 70%
21:00 +16°C° 0 mm 3 mps 760 mmHg 74%
22:00 +16°C° 0 mm 3 mps 760 mmHg 74%
23:00 +16°C° 0 mm 3 mps 760 mmHg 75%
Show more